Alma, MI

8:42 AM EDT on September 25, 2016 (GMT -0400)
Gratiot Community

Weather History for KAMN - April, 2013

Change the Weather History Date:

Sunday, April 14, 2013

  Actual Average Record
Temperature  
Mean Temperature 38 °F -  
Max Temperature 46 °F 58 °F 77 °F (2003)
Min Temperature 29 °F 34 °F 22 °F (1950)
Degree Days  
Heating Degree Days 28    
Moisture  
Dew Point 32 °F    
Average Humidity 79    
Maximum Humidity 96    
Minimum Humidity 64    
Precipitation  
Precipitation 0.00 in - - ()
Sea Level Pressure  
Sea Level Pressure 30.00 in    
Wind  
Wind Speed 5 mph (SE)    
Max Wind Speed 15 mph    
Max Gust Speed 33 mph    
Visibility 10 miles    
Events      
Averages and records for this station are not official NWS values.
T = Trace of Precipitation, MM = Missing Value Source: NWS Daily Summary

Daily Weather History Graph

Daily Weather History Graph

Search for Another Location

Airport or City:

Trip Planner

Search our weather history database for the weather conditions in past years. The results will help you decide how hot, cold, wet, or windy it might be!

Date:

Astronomy

Apr. 14, 2013 Rise Set
Actual Time 6:57 AM EDT 8:20 PM EDT
Civil Twilight 6:28 AM EDT 8:50 PM EDT
Nautical Twilight 5:52 AM EDT 9:26 PM EDT
Astronomical Twilight 5:14 AM EDT 10:04 PM EDT
Moon 9:28 AM EDT (4/14) No Moon Set
Length of Visible Light 14h 22m
Length of Day
13h 23m
Waxing Crescent, 17% of the Moon is Illuminated
Apr 14
Waxing Crescent
Apr 18
First Quarter
Apr 25
Full
May 2
Last Quarter
May 9
New

Hourly Weather History & Observations

Time (EDT) Temp. Windchill Dew Point Humidity Pressure Visibility Wind Dir Wind Speed Gust Speed Precip Events Conditions
12:15 AM 35.6 °F 31.7 °F 29.1 °F 77% 29.96 in 10.0 mi West 4.6 mph - N/A   Overcast
12:35 AM 35.4 °F 31.5 °F 28.9 °F 77% 29.96 in 10.0 mi SW 4.6 mph - N/A   Overcast
12:54 AM 35.6 °F 29.9 °F 29.1 °F 77% 29.96 in 10.0 mi WSW 6.9 mph - N/A   Overcast
1:15 AM 35.4 °F 30.5 °F 28.9 °F 77% 29.97 in 10.0 mi WSW 5.8 mph - N/A   Overcast
1:35 AM 34.9 °F 29.0 °F 29.3 °F 80% 29.98 in 10.0 mi WSW 6.9 mph - N/A   Overcast
1:55 AM 34.7 °F 30.6 °F 29.5 °F 81% 29.98 in 10.0 mi SW 4.6 mph - N/A   Overcast
2:15 AM 34.0 °F 31.0 °F 29.8 °F 85% 29.98 in 10.0 mi WSW 3.5 mph - N/A   Scattered Clouds
2:35 AM 33.8 °F 30.8 °F 29.5 °F 84% 29.98 in 10.0 mi SW 3.5 mph - N/A   Clear
2:55 AM 33.3 °F 30.2 °F 29.5 °F 86% 29.98 in 10.0 mi SW 3.5 mph - N/A   Scattered Clouds
3:10 AM 33.1 °F 28.7 °F 29.7 °F 87% 29.99 in 10.0 mi SW 4.6 mph - N/A   Mostly Cloudy
3:30 AM 33.4 °F 29.1 °F 29.8 °F 87% 29.99 in 10.0 mi WSW 4.6 mph - N/A   Mostly Cloudy
3:50 AM 33.3 °F - 29.8 °F 87% 29.99 in 10.0 mi Calm Calm - N/A   Mostly Cloudy
4:10 AM 32.2 °F 28.9 °F 29.3 °F 89% 29.99 in 10.0 mi SW 3.5 mph - N/A   Mostly Cloudy
4:31 AM 31.8 °F - 29.1 °F 90% 30.01 in 10.0 mi Calm Calm - N/A   Mostly Cloudy
4:51 AM 31.8 °F 28.5 °F 29.3 °F 90% 30.01 in 10.0 mi SW 3.5 mph - N/A   Clear
5:11 AM 31.8 °F - 29.3 °F 90% 30.01 in 10.0 mi Calm Calm - N/A   Clear
5:31 AM 30.9 °F - 29.3 °F 94% 30.02 in 10.0 mi Calm Calm - N/A   Clear
5:51 AM 31.1 °F - 29.3 °F 93% 30.02 in 10.0 mi Calm Calm - N/A   Clear
6:11 AM 30.7 °F 27.3 °F 29.1 °F 94% 30.03 in 10.0 mi SW 3.5 mph - N/A   Clear
6:31 AM 30.6 °F 25.8 °F 29.3 °F 95% 30.03 in 10.0 mi SW 4.6 mph - N/A   Clear
6:51 AM 29.3 °F - 27.7 °F 94% 30.04 in 10.0 mi Calm Calm - N/A   Clear
7:11 AM 30.2 °F - 29.1 °F 96% 30.05 in 10.0 mi Calm Calm - N/A   Clear
7:32 AM 30.7 °F - 29.8 °F 96% 30.06 in 10.0 mi Calm Calm - N/A   Clear
8:12 AM 33.3 °F - 30.4 °F 89% 30.08 in 10.0 mi North - - N/A   Clear
8:32 AM 33.8 °F - 30.6 °F 88% 30.07 in 10.0 mi Calm Calm - N/A   Clear
8:52 AM 34.9 °F - 30.7 °F 85% 30.07 in 10.0 mi Calm Calm - N/A   Clear
9:12 AM 35.6 °F - 30.2 °F 81% 30.06 in 10.0 mi Calm Calm - N/A   Mostly Cloudy
9:32 AM 35.6 °F - 30.2 °F 81% 30.06 in 10.0 mi North - - N/A   Overcast
9:52 AM 35.6 °F - 29.8 °F 80% 30.05 in 10.0 mi Calm Calm - N/A   Overcast
10:12 AM 36.5 °F 33.9 °F 31.3 °F 81% 30.04 in 10.0 mi ENE 3.5 mph - N/A   Overcast
10:33 AM 36.5 °F 33.9 °F 30.9 °F 80% 30.03 in 10.0 mi East 3.5 mph - N/A   Overcast
10:53 AM 37.4 °F - 29.7 °F 74% 30.04 in 10.0 mi Calm Calm - N/A   Mostly Cloudy
11:13 AM 38.3 °F - 29.7 °F 71% 30.05 in 10.0 mi Calm Calm - N/A   Overcast
11:33 AM 38.3 °F 33.9 °F 30.6 °F 74% 30.06 in 10.0 mi SE 5.8 mph - N/A   Overcast
11:53 AM 38.7 °F 33.6 °F 29.8 °F 71% 30.09 in 10.0 mi SE 6.9 mph - N/A   Overcast
12:13 PM 38.5 °F 32.1 °F 30.9 °F 74% 30.09 in 10.0 mi SE 9.2 mph - N/A   Overcast
12:33 PM 38.5 °F 33.4 °F 30.2 °F 72% 30.10 in 10.0 mi SSE 6.9 mph - N/A   Overcast
12:53 PM 38.3 °F 33.9 °F 30.0 °F 72% 30.10 in 10.0 mi SSE 5.8 mph - N/A   Overcast
1:13 PM 38.5 °F 34.1 °F 30.7 °F 74% 30.10 in 10.0 mi SSE 5.8 mph - N/A   Overcast
1:34 PM 37.9 °F 34.4 °F 30.9 °F 76% 30.08 in 10.0 mi SSE 4.6 mph - N/A   Overcast
1:54 PM 38.5 °F 34.1 °F 32.2 °F 78% 30.07 in 10.0 mi SE 5.8 mph - N/A   Overcast
2:14 PM 38.7 °F 32.9 °F 32.2 °F 78% 30.04 in 10.0 mi East 8.1 mph - N/A   Unknown
2:34 PM 38.5 °F 32.7 °F 32.5 °F 79% 30.03 in 10.0 mi East 8.1 mph - N/A   Overcast
2:54 PM 39.2 °F 32.5 °F 32.4 °F 76% 30.03 in 10.0 mi East 10.4 mph - N/A   Overcast
3:14 PM 39.7 °F 33.2 °F 32.9 °F 77% 30.03 in 10.0 mi East 10.4 mph - N/A   Overcast
3:34 PM 40.8 °F 35.6 °F 33.1 °F 74% 30.03 in 10.0 mi East 8.1 mph 18.4 mph N/A   Overcast
4:15 PM 42.4 °F 37.0 °F 33.1 °F 69% 30.02 in 10.0 mi East 9.2 mph 16.1 mph N/A   Scattered Clouds
4:35 PM 43.3 °F 38.6 °F 34.5 °F 71% 30.01 in 10.0 mi East 8.1 mph - N/A   Mostly Cloudy
4:55 PM 44.2 °F 38.4 °F 34.9 °F 70% 29.99 in 10.0 mi East 11.5 mph 21.9 mph N/A   Scattered Clouds
5:15 PM 45.0 °F 38.2 °F 34.7 °F 67% 29.98 in 10.0 mi East 15.0 mph 20.7 mph N/A   Scattered Clouds
5:35 PM 45.5 °F 39.9 °F 35.2 °F 67% 29.97 in 10.0 mi East 11.5 mph 24.2 mph N/A   Clear
5:55 PM 45.5 °F 38.9 °F 35.4 °F 68% 29.96 in 10.0 mi East 15.0 mph 26.5 mph N/A   Clear
6:15 PM 45.7 °F 39.5 °F 34.9 °F 66% 29.96 in 10.0 mi East 13.8 mph 28.8 mph N/A   Clear
6:35 PM 46.2 °F 40.8 °F 34.7 °F 64% 29.96 in 10.0 mi East 11.5 mph 29.9 mph N/A   Clear
6:55 PM 46.0 °F 39.9 °F 34.7 °F 65% 29.96 in 10.0 mi ESE 13.8 mph 33.4 mph N/A   Clear
7:11 PM 45.5 °F 39.9 °F 34.5 °F 65% 29.96 in 10.0 mi ESE 11.5 mph 21.9 mph N/A   Clear
7:31 PM 45.1 °F 39.9 °F 34.7 °F 67% 29.96 in 10.0 mi ESE 10.4 mph 18.4 mph N/A   Clear
7:51 PM 45.1 °F 38.8 °F 35.6 °F 69% 29.96 in 10.0 mi ESE 13.8 mph 19.6 mph N/A   Clear
8:11 PM 44.8 °F 39.9 °F 36.3 °F 72% 29.95 in 10.0 mi East 9.2 mph - N/A   Clear
8:31 PM 44.6 °F 39.7 °F 36.1 °F 72% 29.95 in 10.0 mi East 9.2 mph - N/A   Clear
8:51 PM 44.1 °F 39.0 °F 36.1 °F 74% 29.95 in 10.0 mi East 9.2 mph - N/A   Clear
9:11 PM 43.7 °F 38.6 °F 36.0 °F 74% 29.94 in 10.0 mi East 9.2 mph - N/A   Clear
9:31 PM 43.3 °F 37.7 °F 36.3 °F 76% 29.94 in 10.0 mi East 10.4 mph 18.4 mph N/A   Clear
9:51 PM 43.2 °F 38.4 °F 36.3 °F 77% 29.94 in 10.0 mi East 8.1 mph - N/A   Clear
10:12 PM 42.8 °F 36.6 °F 36.0 °F 77% 29.94 in 10.0 mi East 11.5 mph 18.4 mph N/A   Clear
10:32 PM 42.3 °F 36.3 °F 35.2 °F 76% 29.94 in 10.0 mi East 10.4 mph - N/A   Clear
10:52 PM 42.1 °F 36.1 °F 34.9 °F 76% 29.92 in 10.0 mi East 10.4 mph 18.4 mph N/A   Clear
11:12 PM 41.5 °F 35.9 °F 34.7 °F 77% 29.91 in 10.0 mi East 9.2 mph 18.4 mph N/A   Clear
11:32 PM 41.2 °F 35.0 °F 34.7 °F 78% 29.90 in 10.0 mi East 10.4 mph - N/A   Clear
11:52 PM 41.0 °F 35.8 °F 34.7 °F 78% 29.90 in 10.0 mi East 8.1 mph - N/A   Clear